Location: The Saddle
(36.8333°N, 80.3417°W)
Time: 07:56:46
(UTC-04:00)

Vanguard 2 Rocket - Pass Details

Date: 31 January 2023
Orbit: 555 x 3316 km, 32.9° (Epoch: 27 March)

Event Time Altitude Azimuth Distance (km) Brightness Sun altitude
Rises 12:36:19 0° 253° (WSW) 2,860 9.7 35.9°
Reaches altitude 10° 12:38:42 10° 247° (WSW) 1,858 8.9 35.9°
Maximum altitude 12:42:31 46° 173° (S) 745 8.7 35.8°
Drops below altitude 10° 12:46:37 10° 99° (E) 1,991 8.8 35.8°
Sets 12:49:15 0° 93° (E) 3,096 9.6 35.8°
